Weather History for LKKV - February, 2013

Change the Weather History Date:

Saturday, February 9, 2013

  Actual Average Record
Temperature  
Mean Temperature 22 °F -  
Max Temperature 28 °F - - ()
Min Temperature 17 °F - - ()
Degree Days  
Heating Degree Days 42    
Moisture  
Dew Point 19 °F    
Average Humidity 84    
Maximum Humidity 93    
Minimum Humidity 69    
Precipitation  
Precipitation 0.00 in - - ()
Sea Level Pressure  
Sea Level Pressure 29.92 in    
Wind  
Wind Speed 3 mph ()    
Max Wind Speed 7 mph    
Max Gust Speed -    
Visibility 6.0 miles    
Events Snow    
T = Trace of Precipitation, MM = Missing Value Source: Averaged Metar Reports

Daily Weather History Graph

Daily Weather History Graph

Search for Another Location

Airport or City:

Trip Planner

Search our weather history database for the weather conditions in past years. The results will help you decide how hot, cold, wet, or windy it might be!

Date:

Astronomy

Feb. 09, 2013 Rise Set
Actual Time 7:29 AM CET 5:16 PM CET
Civil Twilight 6:55 AM CET 5:50 PM CET
Nautical Twilight 6:17 AM CET 6:28 PM CET
Astronomical Twilight 5:39 AM CET 7:06 PM CET
Moon 6:30 AM CET (2/9) 4:40 PM CET (2/9)
Length of Visible Light 10h 54m
Length of Day
9h 46m
Waning Crescent, 1% of the Moon is Illuminated
Feb 9
Waning Crescent
Feb 10
New
Feb 17
First Quarter
Feb 25
Full
Mar 4
Last Quarter

Hourly Weather History & Observations

Time (CET) Temp. Windchill Dew Point Humidity Pressure Visibility Wind Dir Wind Speed Gust Speed Precip Events Conditions
12:00 AM 23.0 °F 15.8 °F 21.2 °F 93% 29.83 in 3.1 mi ENE 5.8 mph - N/A Snow Light Snow
1:00 AM 23.0 °F 15.8 °F 21.2 °F 93% 29.83 in 6.2 mi ENE 5.8 mph - N/A   Overcast
2:00 AM 23.0 °F 15.8 °F 21.2 °F 93% 29.83 in 6.2 mi NNE 5.8 mph - N/A   Overcast
3:00 AM 23.0 °F 14.7 °F 19.4 °F 86% 29.83 in 4.3 mi NNE 6.9 mph - N/A Snow Light Snow
4:00 AM 21.2 °F 14.9 °F 19.4 °F 93% 29.86 in 6.2 mi NE 4.6 mph - N/A Snow Light Snow
4:06 AM 21.2 °F 14.9 °F 19.4 °F 93% 29.86 in - NE 4.6 mph - N/A Snow Light Snow
5:00 AM 21.2 °F - 19.4 °F 93% 29.86 in 6.2 mi Variable 2.3 mph - N/A Snow Light Snow
6:00 AM 21.2 °F - 19.4 °F 93% 29.86 in 6.2 mi Calm Calm - N/A   Mostly Cloudy
7:00 AM 21.2 °F - 19.4 °F 93% 29.89 in 3.1 mi Variable 2.3 mph - N/A Snow Light Snow
7:30 AM 21.2 °F - 19.4 °F 93% 29.89 in - Variable 2.3 mph - N/A Snow Light Snow
8:00 AM 21.2 °F 14.9 °F 19.4 °F 93% 29.89 in 6.2 mi ENE 4.6 mph - N/A Snow Light Snow
8:30 AM 21.2 °F 16.4 °F 19.4 °F 93% 29.89 in 6.2 mi ENE 3.5 mph - N/A Snow Light Snow
9:00 AM 21.2 °F - 17.6 °F 86% 29.92 in 6.2 mi NNW 2.3 mph - N/A Snow Light Snow
9:30 AM 21.2 °F - 19.4 °F 93% 29.92 in 6.2 mi Variable 2.3 mph - N/A   Mostly Cloudy
10:00 AM 23.0 °F - 19.4 °F 86% 29.92 in 6.2 mi Variable 1.2 mph - N/A   Mostly Cloudy
10:30 AM 23.0 °F 18.4 °F 19.4 °F 86% 29.92 in 6.2 mi NW 3.5 mph - N/A   Mostly Cloudy
11:00 AM 24.8 °F 20.5 °F 21.2 °F 86% 29.95 in 6.2 mi NW 3.5 mph - N/A Snow Light Snow Showers
11:30 AM 24.8 °F 20.5 °F 19.4 °F 80% 29.95 in 6.2 mi NW 3.5 mph - N/A Snow Light Snow Showers
12:00 PM 24.8 °F 19.1 °F 19.4 °F 80% 29.95 in 6.2 mi NW 4.6 mph - N/A   Scattered Clouds
12:30 PM 24.8 °F 19.1 °F 19.4 °F 80% 29.95 in 6.2 mi NNW 4.6 mph - N/A   Scattered Clouds
1:00 PM 26.6 °F 22.6 °F 17.6 °F 69% 29.95 in 6.2 mi NW 3.5 mph - N/A   Scattered Clouds
1:30 PM 26.6 °F 22.6 °F 17.6 °F 69% 29.95 in 6.2 mi NW 3.5 mph - N/A   Scattered Clouds
2:00 PM 26.6 °F - 17.6 °F 69% 29.92 in 6.2 mi Calm Calm - N/A   Scattered Clouds
2:18 PM 28.4 °F - 19.4 °F 69% 29.92 in - Variable 2.3 mph - N/A Snow Light Snow Showers
2:30 PM 26.6 °F - 19.4 °F 74% 29.92 in 6.2 mi Variable 1.2 mph - N/A Snow Light Snow Showers
3:00 PM 26.6 °F 22.6 °F 19.4 °F 74% 29.95 in 6.2 mi SW 3.5 mph - N/A   Scattered Clouds
3:30 PM 26.6 °F 22.6 °F 19.4 °F 74% 29.95 in 6.2 mi WSW 3.5 mph - N/A   Scattered Clouds
3:32 PM 26.6 °F - 19.4 °F 74% 29.95 in 6.2 mi Variable 2.3 mph - N/A Snow Light Snow Showers
4:00 PM 26.6 °F 20.0 °F 19.4 °F 74% 29.95 in 6.2 mi West 5.8 mph - N/A Snow Light Snow Showers
4:30 PM 24.8 °F 20.5 °F 19.4 °F 80% 29.95 in 6.2 mi West 3.5 mph - N/A   Scattered Clouds
5:00 PM 24.8 °F 20.5 °F 17.6 °F 74% 29.95 in 6.2 mi North 3.5 mph - N/A   Scattered Clouds
5:30 PM 24.8 °F 20.5 °F 17.6 °F 74% 29.95 in 6.2 mi NNE 3.5 mph - N/A   Scattered Clouds
6:00 PM 23.0 °F 18.4 °F 15.8 °F 74% 29.95 in 6.2 mi North 3.5 mph - N/A   Scattered Clouds
6:30 PM 21.2 °F 16.4 °F 15.8 °F 80% 29.95 in 6.2 mi NW 3.5 mph - N/A   Scattered Clouds
7:00 PM 21.2 °F - 15.8 °F 80% 29.95 in 6.2 mi Variable 1.2 mph - N/A   Scattered Clouds
7:30 PM 17.6 °F - 15.8 °F 93% 29.95 in 6.2 mi ESE 1.2 mph - N/A   Scattered Clouds
8:00 PM 17.6 °F - 15.8 °F 93% 29.98 in 6.2 mi East 2.3 mph - N/A   Scattered Clouds
9:00 PM 17.6 °F - 15.8 °F 93% 29.95 in 6.2 mi East 1.2 mph - N/A Snow Light Snow Showers
10:00 PM 17.6 °F - 15.8 °F 93% 29.98 in 6.2 mi Variable 2.3 mph - N/A Snow Light Snow Showers
11:00 PM 17.6 °F 12.3 °F 15.8 °F 93% 29.95 in 6.2 mi East 3.5 mph - N/A   Mostly Cloudy